When you browse on this site, cookies collect data to enhance your experience and personalize the content and advertising you see.
Visit our Privacy Policy to learn more. By continuing to use the site, you agree to this use of cookies and data.
EN

Hourly Weather Novotomnikovo

Today, 29 September, Tuesday

Time Temperature Precipitation Wind Pressure Humidity
00:00 +13°C° 0 mm 3 mps 763 mmHg 39%
01:00 +12°C° 0 mm 3 mps 763 mmHg 41%
02:00 +11°C° 0 mm 3 mps 763 mmHg 43%
03:00 +11°C° 0 mm 4 mps 763 mmHg 46%
04:00 +11°C° 0 mm 4 mps 763 mmHg 46%
05:00 +10°C° 0 mm 4 mps 763 mmHg 46%
06:00 +10°C° 0 mm 3 mps 763 mmHg 46%
07:00 +11°C° 0 mm 4 mps 763 mmHg 44%
08:00 +12°C° 0 mm 4 mps 763 mmHg 42%
09:00 +13°C° 0 mm 5 mps 762 mmHg 41%
10:00 +14°C° 0 mm 5 mps 762 mmHg 38%
11:00 +15°C° 0 mm 5 mps 762 mmHg 35%
12:00 +17°C° 0 mm 5 mps 762 mmHg 32%
13:00 +17°C° 0 mm 5 mps 762 mmHg 32%
14:00 +17°C° 0 mm 5 mps 762 mmHg 31%
15:00 +19°C° 0 mm 5 mps 761 mmHg 31%
16:00 +17°C° 0 mm 4 mps 761 mmHg 36%
17:00 +15°C° 0 mm 4 mps 761 mmHg 41%
18:00 +13°C° 0 mm 3 mps 760 mmHg 46%
19:00 +13°C° 0 mm 3 mps 760 mmHg 48%
20:00 +13°C° 0 mm 3 mps 760 mmHg 49%
21:00 +13°C° 0 mm 4 mps 760 mmHg 50%
22:00 +12°C° 0 mm 3 mps 760 mmHg 53%
23:00 +12°C° 0 mm 3 mps 760 mmHg 56%

Tomorrow, 30 September, Wednesday

Time Temperature Precipitation Wind Pressure Humidity
00:00 +12°C° 0 mm 3 mps 760 mmHg 59%
01:00 +11°C° 0 mm 3 mps 760 mmHg 63%
02:00 +11°C° 0 mm 3 mps 760 mmHg 66%
03:00 +11°C° 0 mm 3 mps 760 mmHg 70%
04:00 +11°C° 0 mm 3 mps 760 mmHg 69%
05:00 +11°C° 0 mm 4 mps 760 mmHg 68%
06:00 +11°C° 0 mm 4 mps 759 mmHg 67%
07:00 +12°C° 0 mm 4 mps 760 mmHg 63%
08:00 +13°C° 0 mm 4 mps 760 mmHg 59%
09:00 +14°C° 0 mm 4 mps 760 mmHg 55%
10:00 +15°C° 0 mm 5 mps 760 mmHg 51%
11:00 +17°C° 0 mm 5 mps 759 mmHg 48%
12:00 +19°C° 0 mm 5 mps 759 mmHg 44%
13:00 +19°C° 0 mm 5 mps 759 mmHg 43%
14:00 +19°C° 0 mm 5 mps 759 mmHg 42%
15:00 +20°C° 0 mm 5 mps 759 mmHg 41%
16:00 +18°C° 0 mm 4 mps 759 mmHg 45%
17:00 +17°C° 0 mm 4 mps 759 mmHg 49%
18:00 +16°C° 0 mm 3 mps 759 mmHg 52%
19:00 +14°C° 0 mm 3 mps 759 mmHg 54%
20:00 +14°C° 0 mm 3 mps 759 mmHg 55%
21:00 +13°C° 0 mm 3 mps 759 mmHg 56%
22:00 +13°C° 0 mm 4 mps 759 mmHg 56%
23:00 +13°C° 0 mm 4 mps 759 mmHg 57%

Day after tomorrow, 1 October, Thursday

Time Temperature Precipitation Wind Pressure Humidity
00:00 +13°C° 0 mm 4 mps 759 mmHg 57%
01:00 +12°C° 0 mm 3 mps 759 mmHg 58%
02:00 +12°C° 0 mm 3 mps 760 mmHg 59%
03:00 +11°C° 0 mm 3 mps 760 mmHg 60%
04:00 +11°C° 0 mm 3 mps 760 mmHg 61%
05:00 +11°C° 0 mm 3 mps 760 mmHg 62%
06:00 +10°C° 0 mm 3 mps 760 mmHg 62%
07:00 +12°C° 0 mm 3 mps 760 mmHg 59%
08:00 +13°C° 0 mm 3 mps 760 mmHg 56%
09:00 +14°C° 0 mm 3 mps 760 mmHg 53%
10:00 +17°C° 0 mm 4 mps 760 mmHg 46%
11:00 +19°C° 0 mm 5 mps 760 mmHg 40%
12:00 +20°C° 0 mm 5 mps 760 mmHg 34%
13:00 +20°C° 0 mm 5 mps 760 mmHg 34%
14:00 +20°C° 0 mm 5 mps 760 mmHg 33%
15:00 +21°C° 0 mm 5 mps 760 mmHg 33%
16:00 +19°C° 0 mm 4 mps 760 mmHg 37%
17:00 +17°C° 0 mm 4 mps 760 mmHg 42%
18:00 +16°C° 0 mm 3 mps 760 mmHg 46%
19:00 +14°C° 0 mm 3 mps 760 mmHg 47%
20:00 +13°C° 0 mm 3 mps 760 mmHg 48%
21:00 +12°C° 0 mm 3 mps 760 mmHg 49%
22:00 +12°C° 0 mm 3 mps 760 mmHg 51%
23:00 +12°C° 0 mm 3 mps 760 mmHg 52%

2 October, Friday

Time Temperature Precipitation Wind Pressure Humidity
00:00 +11°C° 0 mm 3 mps 761 mmHg 54%
01:00 +11°C° 0 mm 3 mps 761 mmHg 57%
02:00 +11°C° 0 mm 3 mps 761 mmHg 60%
03:00 +11°C° 0 mm 3 mps 761 mmHg 64%
04:00 +11°C° 0 mm 3 mps 761 mmHg 67%
05:00 +10°C° 0 mm 3 mps 761 mmHg 71%
06:00 +10°C° 0 mm 3 mps 761 mmHg 74%
07:00 +12°C° 0 mm 3 mps 761 mmHg 70%
08:00 +13°C° 0 mm 3 mps 761 mmHg 66%
09:00 +14°C° 0 mm 4 mps 761 mmHg 62%
10:00 +17°C° 0 mm 4 mps 761 mmHg 57%
11:00 +18°C° 0 mm 4 mps 761 mmHg 52%
12:00 +20°C° 0 mm 5 mps 761 mmHg 47%
13:00 +20°C° 0 mm 5 mps 761 mmHg 45%
14:00 +20°C° 0 mm 4 mps 761 mmHg 44%
15:00 +21°C° 0 mm 4 mps 760 mmHg 43%
16:00 +19°C° 0 mm 4 mps 760 mmHg 49%
17:00 +17°C° 0 mm 3 mps 760 mmHg 54%
18:00 +16°C° 0 mm 3 mps 760 mmHg 60%
19:00 +14°C° 0 mm 3 mps 760 mmHg 63%
20:00 +14°C° 0 mm 3 mps 760 mmHg 66%
21:00 +13°C° 0 mm 3 mps 761 mmHg 69%
22:00 +13°C° 0 mm 2 mps 761 mmHg 70%
23:00 +13°C° 0 mm 2 mps 761 mmHg 71%

3 October, Saturday

Time Temperature Precipitation Wind Pressure Humidity
00:00 +12°C° 0 mm 2 mps 761 mmHg 72%
01:00 +12°C° 0 mm 2 mps 761 mmHg 73%
02:00 +12°C° 0 mm 2 mps 761 mmHg 74%
03:00 +10°C° 0 mm 2 mps 761 mmHg 74%
04:00 +10°C° 0 mm 2 mps 761 mmHg 75%
05:00 +10°C° 0 mm 2 mps 761 mmHg 75%
06:00 +10°C° 0 mm 2 mps 761 mmHg 76%
07:00 +11°C° 0 mm 3 mps 761 mmHg 70%
08:00 +12°C° 0 mm 3 mps 761 mmHg 65%
09:00 +14°C° 0 mm 3 mps 761 mmHg 59%
10:00 +16°C° 0 mm 3 mps 761 mmHg 53%
11:00 +18°C° 0 mm 4 mps 761 mmHg 46%
12:00 +19°C° 0 mm 4 mps 761 mmHg 39%
13:00 +20°C° 0 mm 4 mps 761 mmHg 39%
14:00 +20°C° 0 mm 3 mps 760 mmHg 38%
15:00 +20°C° 0 mm 3 mps 760 mmHg 38%
16:00 +18°C° 0 mm 3 mps 760 mmHg 43%
17:00 +17°C° 0 mm 2 mps 760 mmHg 48%
18:00 +16°C° 0 mm 2 mps 760 mmHg 53%
19:00 +15°C° 0 mm 2 mps 760 mmHg 56%
20:00 +14°C° 0 mm 2 mps 760 mmHg 58%
21:00 +14°C° 0 mm 2 mps 760 mmHg 61%
22:00 +13°C° 0 mm 2 mps 760 mmHg 63%
23:00 +13°C° 0 mm 2 mps 760 mmHg 65%

4 October, Sunday

Time Temperature Precipitation Wind Pressure Humidity
00:00 +12°C° 0 mm 2 mps 760 mmHg 67%
01:00 +12°C° 0 mm 2 mps 760 mmHg 67%
02:00 +12°C° 0 mm 2 mps 761 mmHg 68%
03:00 +10°C° 0 mm 2 mps 761 mmHg 69%
04:00 +10°C° 0 mm 2 mps 761 mmHg 70%
05:00 +10°C° 0 mm 2 mps 761 mmHg 70%
06:00 +10°C° 0 mm 2 mps 761 mmHg 71%
07:00 +12°C° 0 mm 2 mps 761 mmHg 67%
08:00 +13°C° 0 mm 2 mps 761 mmHg 63%
09:00 +14°C° 0 mm 2 mps 761 mmHg 59%
10:00 +16°C° 0 mm 2 mps 761 mmHg 55%
11:00 +17°C° 0 mm 3 mps 761 mmHg 51%
12:00 +19°C° 0 mm 3 mps 761 mmHg 47%
13:00 +19°C° 0 mm 3 mps 761 mmHg 47%
14:00 +19°C° 0 mm 3 mps 761 mmHg 46%
15:00 +19°C° 0 mm 3 mps 761 mmHg 46%
16:00 +18°C° 0 mm 3 mps 761 mmHg 53%
17:00 +16°C° 0 mm 3 mps 761 mmHg 60%
18:00 +15°C° 0 mm 2 mps 761 mmHg 66%
19:00 +13°C° 0 mm 3 mps 761 mmHg 69%
20:00 +12°C° 0 mm 3 mps 762 mmHg 71%
21:00 +11°C° 0 mm 3 mps 762 mmHg 74%
22:00 +12°C° 0 mm 2 mps 762 mmHg 75%
23:00 +10°C° 0 mm 2 mps 762 mmHg 76%
Show more